Hourly Data Report for June 15, 2003

All times are specified in Local Standard Time (LST). Add 1 hour to adjust for Daylight Saving Time where and when it is observed.

TORONTO CITY
ONTARIO

43°40'00.000" N
79°24'00.000" W
112.50 m
6158355
71508
XTO

Download Data

Hourly Data (June 2003)
Hourly Data Report for June 15, 2003
TIME Temp Definition
°C
Dew Point Definition
°C
Rel Hum Definition
%
Wind Dir Definition
10's deg

Wind Spd Definition
km/h
Visibility Definition
km
Stn Press Definition
kPa
Hmdx Definition


Wind Chill Definition


Weather Definition


00:00 18.1 13.6 75 LegendMM LegendMM LegendMM 100.11     LegendNANA
01:00 18.4 14.1 76 LegendMM LegendMM LegendMM 100.13     LegendNANA
02:00 17.0 14.1 83 LegendMM LegendMM LegendMM 100.16     LegendNANA
03:00 17.3 13.8 80 LegendMM LegendMM LegendMM 100.17     LegendNANA
04:00 16.8 13.9 83 LegendMM LegendMM LegendMM 100.19     LegendNANA
05:00 17.3 14.0 81 LegendMM LegendMM LegendMM 100.24     LegendNANA
06:00 17.4 14.1 81 LegendMM LegendMM LegendMM 100.32     LegendNANA
07:00 18.4 14.5 78 LegendMM LegendMM LegendMM 100.39     LegendNANA
08:00 20.7 15.7 73 LegendMM LegendMM LegendMM 100.42 25   LegendNANA
09:00 21.6 14.5 64 LegendMM LegendMM LegendMM 100.46 25   LegendNANA
10:00 22.9 14.7 60 LegendMM LegendMM LegendMM 100.48 27   LegendNANA
11:00 21.0 13.5 62 LegendMM LegendMM LegendMM 100.47     LegendNANA
12:00 21.0 13.7 63 LegendMM LegendMM LegendMM 100.48     LegendNANA
13:00 21.9 13.3 58 LegendMM LegendMM LegendMM 100.49 25   LegendNANA
14:00 23.2 13.1 53 LegendMM LegendMM LegendMM 100.49 26   LegendNANA
15:00 23.0 11.7 49 LegendMM LegendMM LegendMM 100.48 25   LegendNANA
16:00 22.8 12.7 53 LegendMM LegendMM LegendMM 100.47 25   LegendNANA
17:00 22.0 12.0 53 LegendMM LegendMM LegendMM 100.47     LegendNANA
18:00 20.8 12.0 57 LegendMM LegendMM LegendMM 100.49     LegendNANA
19:00 20.5 11.7 57 LegendMM LegendMM LegendMM 100.51     LegendNANA
20:00 18.9 11.7 63 LegendMM LegendMM LegendMM 100.54     LegendNANA
21:00 17.8 10.9 64 LegendMM LegendMM LegendMM 100.62     LegendNANA
22:00 17.2 9.1 59 LegendMM LegendMM LegendMM 100.67     LegendNANA
23:00 16.5 8.7 60 LegendMM LegendMM LegendMM 100.68     LegendNANA

Notes on Data Quality.

Legend

  • E = Estimated
  • M = Missing
  • NA = Not Available
Date modified: